Miscellaneous Local Product
Issued by NWS North Platte, NE

Home | Current Version | Previous Version | Text Only | Print | Product List | Glossary On
Versions: 1 2 3 4 5 6 7 8 9 10 11 12 13 14 15 16 17 18 19 20 21 22 23 24 25 26 27 28 29 30 31 32 33 34 35 36 37 38 39 40 41 42 43 44 45 46 47 48 49 50
310
AXUS43 KLBF 042210
MISLBF


WESTERN AND NORTH CENTRAL NEBRASKA HOURLY WEATHER ROUNDUP
NATIONAL WEATHER SERVICE NORTH PLATTE NE
500 PM CDT WED MAY 04 2016

NOTE: "FAIR" INDICATES FEW OR NO CLOUDS BELOW 12,000 FEET WITH NO
SIGNIFICANT WEATHER AND/OR OBSTRUCTIONS TO VISIBILITY.

NOTE: STATIONS NOT REPORTING VARIABLES SUCH AS SKY/WEATHER OR
PRESSURE ARE PROVIDED BY RAWS AND APRS NETWORKS AND ARE NOT UNDER
NATIONAL WEATHER SERVICE QUALITY CONTROL.

...OBSERVATIONS IN AND NEAR THE EASTERN PANHANDLE OF NEBRASKA...

CITY           SKY/WX    TMP DP  RH WIND       PRES   REMARKS
PINE RIDGE     SUNNY     75  31  19 CALM      30.08F
CHADRON        SUNNY     78  40  25 E8        30.07F
ALLIANCE       SUNNY     74  38  27 CALM      30.11F
SIDNEY         SUNNY     74  40  29 SE9       30.14F
CRESCENT LAKE    N/A     76  35  23 CALM        N/A
BIG SPRINGS      N/A     76  44  31 NW3         N/A
$$

...OBSERVATIONS IN NORTHERN NEBRASKA AND FAR SOUTHERN SOUTH DAKOTA...

CITY           SKY/WX    TMP DP  RH WIND       PRES   REMARKS
WINNER         FAIR      73  37  27 N6        30.07F
VALENTINE      SUNNY     74  35  24 N8        30.08F
THEDFORD       SUNNY     74  39  27 N7        30.10S
AINSWORTH        N/A     70  34  26 NE3       30.09F HAZE
O`NEILL        SUNNY     68  30  24 N12G17    30.08F
ORD            SUNNY     70  35  27 N13       30.06F
BROKEN BOW     SUNNY     72  46  39 N8        30.08F
VALENTINE NWR    N/A     74  36  24 NE6G13      N/A
BUTTE            N/A     67  38  34 NW12        N/A
HALSEY           N/A     76  33  21 NE6G14      N/A
CHAMBERS         N/A     70  36  28 N8          N/A
EWING            N/A     68  35  29 N8G15       N/A
$$

...OBSERVATIONS IN SOUTHWEST NEBRASKA AND FAR NORTHEAST COLORADO...

CITY           SKY/WX    TMP DP  RH WIND       PRES   REMARKS
HOLYOKE        FAIR      79  43  27 NW9       30.13F
IMPERIAL       SUNNY     77  38  24 NE7       30.10F
OGALLALA       SUNNY     75  35  22 N5        30.10F
NORTH PLATTE   SUNNY     76  36  23 NE13      30.08F
MCCOOK         SUNNY     78  42  27 N9        30.07F
LEXINGTON      SUNNY     72  40  30 N9        30.08F
PAXTON           N/A     76  43  31 NW3         N/A
STAPLETON        N/A     74  43  32 CALM        N/A
GOTHENBURG       N/A     74  31  21 N8          N/A
CALLAWAY         N/A     73  39  29 N9          N/A
$$

...OBSERVATIONS IN CENTRAL LINCOLN COUNTY AREA...

CITY           SKY/WX    TMP DP  RH WIND       PRES   REMARKS
N.P. AIRPORT   SUNNY     76  36  23 NE13      30.08F
N.P. DOWNTOWN    N/A     75  38  26 NE6         N/A
N.P. SOUTHEAST   N/A     76  37  24 N3          N/A
N.P. HILLCREST   N/A     75  37  25 NE7         N/A
$$

...SOME OBSERVATIONS FROM AROUND THE REGION...

CITY           SKY/WX    TMP DP  RH WIND       PRES   REMARKS
DENVER         MOSUNNY   73  28  18 SE7       30.16F
LARAMIE        SUNNY     65  26  23 VRB3      30.23F
CHEYENNE       SUNNY     71  26  18 W8        30.18F
SCOTTSBLUFF    SUNNY     76  38  25 SE6       30.10F
RAPID CITY     SUNNY     76  43  30 S14       30.06F
BISMARCK       SUNNY     79  41  25 SW5       29.99F
PIERRE         SUNNY     73  36  25 VRB3      30.04F
SIOUX FALLS    MOSUNNY   68  36  30 N17       30.00F
OMAHA          MOSUNNY   69  38  32 N17       30.00F
GRAND ISLAND   SUNNY     69  30  23 N13       30.07F
KANSAS CITY    SUNNY     69  38  32 N16G24    29.97F
WICHITA        SUNNY     75  32  20 N21       30.03S
OKLAHOMA CITY  MOSUNNY   80  46  30 N20       30.00S
DALLAS         SUNNY     81  48  31 NW14      29.97F
AMARILLO       SUNNY     78  36  21 CALM      30.15F
DODGE CITY     SUNNY     75  42  30 N15       30.09F
HAYS           SUNNY     73  41  31 N6G17     30.08F
GOODLAND       SUNNY     75  38  26 NE3       30.12F
$$




USA.gov is the U.S. government's official web portal to all federal, state and local government web resources and services.